When you browse on this site, cookies collect data to enhance your experience and personalize the content and advertising you see.
Visit our Privacy Policy to learn more. By continuing to use the site, you agree to this use of cookies and data.
  • In France
  • List of Countries
  • For 7 days
  • Water Temperature
  • Satellite Maps
  • Weather Map
  • Weather Widgets
  • user-avatar
    Login

    Hourly Weather Bunia

    Today, 16 July, Tuesday

    Time Temperature Precipitation Wind Pressure Humidity
    00:00 +19°C° 0.5 mm 1 mps 656 mmHg 89%
    01:00 +19°C° 0.5 mm 1 mps 655 mmHg 91%
    02:00 +19°C° 0 mm 1 mps 654 mmHg 92%
    03:00 +19°C° 0.1 mm 1 mps 655 mmHg 92%
    04:00 +16°C° 0.1 mm 0 mps 655 mmHg 91%
    05:00 +16°C° 0.1 mm 0 mps 655 mmHg 91%
    06:00 +18°C° 0 mm 0 mps 655 mmHg 88%
    07:00 +19°C° 0 mm 0 mps 656 mmHg 86%
    08:00 +20°C° 0 mm 0 mps 657 mmHg 82%
    09:00 +24°C° 0.1 mm 1 mps 657 mmHg 75%
    10:00 +25°C° 0.1 mm 2 mps 657 mmHg 68%
    11:00 +27°C° 0.1 mm 2 mps 657 mmHg 60%
    12:00 +27°C° 0 mm 2 mps 657 mmHg 57%
    13:00 +28°C° 0 mm 2 mps 656 mmHg 53%
    14:00 +28°C° 0 mm 2 mps 656 mmHg 50%
    15:00 +27°C° 0 mm 2 mps 656 mmHg 55%
    16:00 +27°C° 0 mm 1 mps 655 mmHg 61%
    17:00 +26°C° 0 mm 1 mps 655 mmHg 66%
    18:00 +24°C° 0.1 mm 1 mps 655 mmHg 71%
    19:00 +22°C° 0.1 mm 1 mps 656 mmHg 76%
    20:00 +21°C° 0.1 mm 1 mps 656 mmHg 80%
    21:00 +20°C° 0.2 mm 1 mps 656 mmHg 82%
    22:00 +20°C° 0.2 mm 1 mps 656 mmHg 85%
    23:00 +19°C° 0.2 mm 1 mps 656 mmHg 87%

    Tomorrow, 17 July, Wednesday

    Time Temperature Precipitation Wind Pressure Humidity
    00:00 +19°C° 0.5 mm 1 mps 656 mmHg 89%
    01:00 +19°C° 0.5 mm 1 mps 655 mmHg 90%
    02:00 +16°C° 0.5 mm 0 mps 655 mmHg 92%
    03:00 +18°C° 0.1 mm 1 mps 655 mmHg 92%
    04:00 +18°C° 0.1 mm 1 mps 655 mmHg 91%
    05:00 +18°C° 0.1 mm 1 mps 655 mmHg 91%
    06:00 +20°C° 0 mm 1 mps 656 mmHg 88%
    07:00 +21°C° 0 mm 1 mps 657 mmHg 85%
    08:00 +20°C° 0 mm 0 mps 657 mmHg 82%
    09:00 +24°C° 0.1 mm 1 mps 658 mmHg 75%
    10:00 +25°C° 0.1 mm 2 mps 658 mmHg 68%
    11:00 +26°C° 0.1 mm 2 mps 658 mmHg 61%
    12:00 +27°C° 0 mm 2 mps 657 mmHg 58%
    13:00 +27°C° 0 mm 2 mps 657 mmHg 54%
    14:00 +28°C° 0 mm 2 mps 656 mmHg 51%
    15:00 +27°C° 0 mm 2 mps 656 mmHg 56%
    16:00 +26°C° 0 mm 1 mps 655 mmHg 61%
    17:00 +26°C° 0 mm 1 mps 655 mmHg 66%
    18:00 +24°C° 0 mm 1 mps 655 mmHg 71%
    19:00 +22°C° 0 mm 1 mps 655 mmHg 75%
    20:00 +21°C° 0 mm 1 mps 655 mmHg 80%
    21:00 +19°C° 0 mm 2 mps 655 mmHg 81%
    22:00 +19°C° 0 mm 2 mps 656 mmHg 82%
    23:00 +19°C° 0 mm 2 mps 656 mmHg 84%

    Day after tomorrow, 18 July, Thursday

    Time Temperature Precipitation Wind Pressure Humidity
    00:00 +19°C° 0 mm 2 mps 655 mmHg 84%
    01:00 +19°C° 0 mm 2 mps 655 mmHg 84%
    02:00 +18°C° 0 mm 2 mps 654 mmHg 84%
    03:00 +19°C° 0 mm 1 mps 654 mmHg 83%
    04:00 +19°C° 0 mm 1 mps 654 mmHg 82%
    05:00 +19°C° 0 mm 1 mps 654 mmHg 81%
    06:00 +20°C° 0 mm 1 mps 655 mmHg 79%
    07:00 +20°C° 0 mm 2 mps 656 mmHg 76%
    08:00 +23°C° 0 mm 2 mps 656 mmHg 74%
    09:00 +24°C° 0 mm 3 mps 657 mmHg 68%
    10:00 +25°C° 0 mm 3 mps 657 mmHg 62%
    11:00 +27°C° 0 mm 3 mps 657 mmHg 57%
    12:00 +27°C° 0 mm 3 mps 656 mmHg 55%
    13:00 +28°C° 0 mm 3 mps 656 mmHg 53%
    14:00 +28°C° 0 mm 3 mps 655 mmHg 51%
    15:00 +27°C° 0.1 mm 2 mps 655 mmHg 58%
    16:00 +26°C° 0.1 mm 2 mps 654 mmHg 65%
    17:00 +24°C° 0.1 mm 2 mps 654 mmHg 72%
    18:00 +23°C° 0 mm 2 mps 654 mmHg 75%
    19:00 +22°C° 0 mm 1 mps 654 mmHg 77%
    20:00 +21°C° 0 mm 1 mps 654 mmHg 79%
    21:00 +20°C° 0 mm 1 mps 655 mmHg 81%
    22:00 +19°C° 0 mm 2 mps 655 mmHg 83%
    23:00 +19°C° 0 mm 2 mps 655 mmHg 85%

    19 July, Friday

    Time Temperature Precipitation Wind Pressure Humidity
    00:00 +19°C° 0 mm 2 mps 655 mmHg 85%
    01:00 +20°C° 0 mm 1 mps 654 mmHg 85%
    02:00 +20°C° 0 mm 1 mps 654 mmHg 86%
    03:00 +19°C° 0 mm 1 mps 654 mmHg 84%
    04:00 +19°C° 0 mm 1 mps 654 mmHg 83%
    05:00 +19°C° 0 mm 1 mps 654 mmHg 81%
    06:00 +20°C° 0 mm 1 mps 655 mmHg 79%
    07:00 +21°C° 0 mm 1 mps 656 mmHg 77%
    08:00 +23°C° 0 mm 1 mps 657 mmHg 74%
    09:00 +24°C° 0 mm 2 mps 657 mmHg 68%
    10:00 +26°C° 0 mm 2 mps 657 mmHg 61%
    11:00 +27°C° 0 mm 2 mps 657 mmHg 54%
    12:00 +28°C° 0 mm 2 mps 656 mmHg 52%
    13:00 +28°C° 0 mm 2 mps 656 mmHg 50%
    14:00 +28°C° 0 mm 2 mps 655 mmHg 48%
    15:00 +28°C° 0 mm 2 mps 655 mmHg 53%
    16:00 +27°C° 0 mm 1 mps 654 mmHg 57%
    17:00 +26°C° 0 mm 1 mps 654 mmHg 62%
    18:00 +25°C° 0.1 mm 1 mps 654 mmHg 67%
    19:00 +23°C° 0.1 mm 1 mps 654 mmHg 71%
    20:00 +21°C° 0.1 mm 1 mps 654 mmHg 75%
    21:00 +21°C° 0 mm 1 mps 655 mmHg 75%
    22:00 +20°C° 0 mm 1 mps 655 mmHg 76%
    23:00 +20°C° 0 mm 1 mps 655 mmHg 76%

    20 July, Saturday

    Time Temperature Precipitation Wind Pressure Humidity
    00:00 +20°C° 0.1 mm 1 mps 655 mmHg 80%
    01:00 +17°C° 0.1 mm 0 mps 654 mmHg 84%
    02:00 +17°C° 0.1 mm 0 mps 654 mmHg 87%
    03:00 +17°C° 0.1 mm 0 mps 654 mmHg 88%
    04:00 +16°C° 0.1 mm 0 mps 654 mmHg 89%
    05:00 +16°C° 0.1 mm 0 mps 654 mmHg 90%
    06:00 +18°C° 0.1 mm 0 mps 655 mmHg 86%
    07:00 +19°C° 0.1 mm 0 mps 656 mmHg 81%
    08:00 +21°C° 0.1 mm 0 mps 657 mmHg 76%
    09:00 +22°C° 0.7 mm 0 mps 657 mmHg 72%
    10:00 +25°C° 0.7 mm 1 mps 657 mmHg 67%
    11:00 +27°C° 0.7 mm 1 mps 657 mmHg 62%
    12:00 +27°C° 0.1 mm 1 mps 656 mmHg 58%
    13:00 +28°C° 0.1 mm 1 mps 656 mmHg 53%
    14:00 +29°C° 0.1 mm 1 mps 655 mmHg 49%
    15:00 +28°C° 0.1 mm 1 mps 655 mmHg 55%
    16:00 +27°C° 0.1 mm 1 mps 655 mmHg 61%
    17:00 +26°C° 0.1 mm 1 mps 654 mmHg 67%
    18:00 +24°C° 0.3 mm 1 mps 654 mmHg 73%
    19:00 +22°C° 0.3 mm 1 mps 655 mmHg 79%
    20:00 +21°C° 0.3 mm 1 mps 655 mmHg 85%
    21:00 +20°C° 0.3 mm 1 mps 655 mmHg 87%
    22:00 +20°C° 0.3 mm 1 mps 655 mmHg 89%
    23:00 +19°C° 0.3 mm 1 mps 655 mmHg 90%

    21 July, Sunday

    Time Temperature Precipitation Wind Pressure Humidity
    00:00 +19°C° 0.1 mm 1 mps 655 mmHg 90%
    01:00 +19°C° 0.1 mm 1 mps 654 mmHg 91%
    02:00 +19°C° 0.1 mm 1 mps 654 mmHg 91%
    03:00 +18°C° 0 mm 1 mps 654 mmHg 91%
    04:00 +18°C° 0 mm 1 mps 654 mmHg 91%
    05:00 +16°C° 0 mm 0 mps 654 mmHg 91%
    06:00 +18°C° 0.1 mm 0 mps 655 mmHg 88%
    07:00 +19°C° 0.1 mm 0 mps 656 mmHg 85%
    08:00 +20°C° 0.1 mm 0 mps 657 mmHg 82%
    09:00 +23°C° 0.9 mm 1 mps 657 mmHg 80%
    10:00 +24°C° 0.9 mm 1 mps 656 mmHg 77%
    11:00 +25°C° 0.9 mm 2 mps 656 mmHg 75%
    12:00 +26°C° 0.8 mm 2 mps 656 mmHg 73%
    13:00 +26°C° 0.8 mm 2 mps 655 mmHg 72%
    14:00 +26°C° 0.8 mm 2 mps 655 mmHg 70%
    15:00 +25°C° 0.7 mm 1 mps 655 mmHg 75%
    16:00 +25°C° 0.7 mm 1 mps 655 mmHg 79%
    17:00 +24°C° 0.7 mm 1 mps 654 mmHg 84%
    18:00 +23°C° 0.4 mm 1 mps 654 mmHg 86%
    19:00 +21°C° 0.4 mm 1 mps 655 mmHg 88%
    20:00 +20°C° 0.4 mm 1 mps 655 mmHg 91%
    21:00 +20°C° 0.2 mm 1 mps 655 mmHg 91%
    22:00 +19°C° 0.2 mm 1 mps 655 mmHg 91%
    23:00 +19°C° 0.2 mm 1 mps 655 mmHg 92%
    Show more